Weather History for Valparaiso, IN

Change the Weather History Date:

Thursday, January 17, 2013

  Actual Average Record
Temperature  
Mean Temperature 26 °F 23 °F  
Max Temperature 34 °F 31 °F 55 °F (1999)
Min Temperature 18 °F 16 °F -4 °F (2009)
Degree Days  
Heating Degree Days 39 42  
Month to date heating degree days 630 705  
Since 1 July heating degree days 2815 3107  
Cooling Degree Days 0 0  
Month to date cooling degree days 0 0  
Year to date cooling degree days 0 0  
Moisture  
Dew Point 19 °F    
Average Humidity 67    
Maximum Humidity 86    
Minimum Humidity 47    
Precipitation  
Precipitation 0.00 in 0.06 in 0.28 in (2012)
Month to date precipitation 0.69 0.92  
Year to date precipitation 0.69 0.92  
Sea Level Pressure  
Sea Level Pressure 30.26 in    
Wind  
Wind Speed 8 mph (WNW)    
Max Wind Speed 18 mph    
Max Gust Speed 24 mph    
Visibility 10 miles    
Events      
T = Trace of Precipitation, MM = Missing Value Source: NWS Daily Summary

Daily Weather History Graph

Daily Weather History Graph

Search for Another Location

Airport:

Trip Planner

Search our weather history database for the weather conditions in past years. The results will help you decide how hot, cold, wet, or windy it might be!

Date:

Astronomy

Jan. 17, 2013 Rise Set
Actual Time 7:10 AM CST 4:45 PM CST
Civil Twilight 6:40 AM CST 5:16 PM CST
Nautical Twilight 6:06 AM CST 5:50 PM CST
Astronomical Twilight 5:33 AM CST 6:23 PM CST
Moon 10:12 AM CST (1/17) 11:42 PM CST (1/17)
Length of Visible Light 10h 35m
Length of Day
9h 35m
Waxing Crescent, 38% of the Moon is Illuminated
Jan 17
Waxing Crescent
Jan 18
First Quarter
Jan 26
Full
Feb 3
Last Quarter
Feb 10
New

Hourly Weather History & Observations

Time (CST) Temp. Windchill Dew Point Humidity Pressure Visibility Wind Dir Wind Speed Gust Speed Precip Events Conditions
12:43 AM 32.0 °F 26.4 °F 26.6 °F 80% 30.07 in 10.0 mi West 5.8 mph - N/A   Overcast
12:53 AM 32.0 °F 25.6 °F 27.0 °F 82% 30.10 in 10.0 mi WSW 6.9 mph - N/A   Overcast
1:00 AM 32.0 °F 25.6 °F 26.6 °F 80% 30.07 in 10.0 mi West 6.9 mph - N/A   Overcast
1:27 AM 32.0 °F 26.4 °F 26.6 °F 80% 30.09 in 10.0 mi West 5.8 mph - N/A   Overcast
1:53 AM 32.0 °F 26.4 °F 27.0 °F 82% 30.12 in 10.0 mi West 5.8 mph - N/A   Mostly Cloudy
2:01 AM 30.2 °F 23.4 °F 26.6 °F 86% 30.10 in 10.0 mi West 6.9 mph - N/A   Mostly Cloudy
2:53 AM 30.0 °F 24.1 °F 26.1 °F 85% 30.14 in 10.0 mi West 5.8 mph - N/A   Mostly Cloudy
3:53 AM 33.1 °F 30.0 °F 28.0 °F 82% 30.15 in 9.0 mi WNW 3.5 mph - N/A   Overcast
4:53 AM 33.1 °F 27.7 °F 28.0 °F 82% 30.18 in 9.0 mi NW 5.8 mph - N/A   Overcast
5:44 AM 32.0 °F 22.5 °F 24.8 °F 75% 30.18 in 10.0 mi NNW 12.7 mph 18.4 mph N/A   Mostly Cloudy
5:51 AM 32.0 °F 24.8 °F 23.0 °F 69% 30.18 in 10.0 mi NNW 8.1 mph 18.4 mph N/A   Scattered Clouds
5:53 AM 32.0 °F 24.8 °F 23.0 °F 69% 30.21 in 10.0 mi North 8.1 mph 18.4 mph N/A   Scattered Clouds
6:53 AM 30.0 °F 21.7 °F 21.0 °F 69% 30.24 in 10.0 mi NNW 9.2 mph - N/A   Clear
7:53 AM 30.0 °F 23.2 °F 19.0 °F 64% 30.25 in 10.0 mi NW 6.9 mph - N/A   Clear
8:53 AM 30.9 °F 20.2 °F 19.9 °F 64% 30.27 in 10.0 mi NNW 15.0 mph 20.7 mph N/A   Clear
9:53 AM 30.9 °F 19.8 °F 16.0 °F 54% 30.30 in 10.0 mi North 16.1 mph 21.9 mph N/A   Clear
10:53 AM 30.9 °F 20.7 °F 15.1 °F 52% 30.30 in 10.0 mi NNW 13.8 mph 19.6 mph N/A   Clear
12:53 PM 30.0 °F 19.5 °F 14.0 °F 51% 30.29 in 10.0 mi NNW 13.8 mph 21.9 mph N/A   Clear
1:53 PM 30.0 °F 20.5 °F 12.0 °F 47% 30.30 in 10.0 mi NNW 11.5 mph 20.7 mph N/A   Clear
2:53 PM 28.9 °F 16.9 °F 10.9 °F 47% 30.31 in 10.0 mi NNW 17.3 mph 24.2 mph N/A   Clear
3:53 PM 28.0 °F 17.5 °F 12.0 °F 51% 30.33 in 10.0 mi NNW 12.7 mph 19.6 mph N/A   Clear
4:53 PM 26.1 °F 19.4 °F 10.9 °F 53% 30.35 in 10.0 mi North 5.8 mph - N/A   Clear
5:53 PM 24.1 °F - 10.9 °F 57% 30.38 in 10.0 mi Calm Calm - N/A   Clear
6:53 PM 24.1 °F - 10.9 °F 57% 30.40 in 10.0 mi Calm Calm - N/A   Clear
7:53 PM 21.9 °F 14.5 °F 10.9 °F 63% 30.41 in 10.0 mi West 5.8 mph - N/A   Clear
8:53 PM 19.9 °F 10.1 °F 10.9 °F 68% 30.42 in 10.0 mi WSW 8.1 mph - N/A   Clear
9:53 PM 19.0 °F 10.0 °F 10.0 °F 68% 30.43 in 10.0 mi WSW 6.9 mph - N/A   Clear
10:53 PM 19.9 °F 13.4 °F 10.0 °F 65% 30.42 in 10.0 mi WSW 4.6 mph - N/A   Clear
11:53 PM 19.0 °F 13.9 °F 10.9 °F 71% 30.41 in 10.0 mi WSW 3.5 mph - N/A   Clear